GW2419 Weather Reports


time (UTC)temp
C
wind
direction
speed
KPH
gust
KPH
rain 1hr
cm
rain 24hr
cm
rain mn
cm
humidity
%
barometer
mb
20260901163527 27 89 0.0 8.0 0.00 0.00 0.00 54 1015.4
20260901163045 27 0 1.6 8.0 0.00 0.00 0.00 54 1015.3
20260901162522 26 32 0.0 3.2 0.00 0.00 0.00 52 1015.5
20260901162025 26 0 0.0 3.2 0.00 0.00 0.00 53 1015.5
20260901161545 26 360 0.0 3.2 0.00 0.00 0.00 53 1015.5
20260901161043 26 0 0.0 4.8 0.00 0.00 0.00 55 1015.4
20260901160525 26 90 0.0 4.8 0.00 0.00 0.00 55 1015.5
20260901160045 26 59 0.0 3.2 0.00 0.00 0.00 56 1015.6
20260901155525 26 0 0.0 3.2 0.00 0.00 0.00 58 1015.5
20260901155023 26 0 0.0 3.2 0.00 0.00 0.00 55 1015.5
20260901154539 26 360 0.0 3.2 0.00 0.00 0.00 59 1015.7
20260901154024 26 0 0.0 3.2 0.00 0.00 0.00 59 1015.6
20260901153532 26 0 0.0 3.2 0.00 0.00 0.00 59 1015.5
20260901153046 26 360 0.0 3.2 0.00 0.00 0.00 60 1015.5
20260901152522 26 0 0.0 3.2 0.00 0.00 0.00 62 1015.6
20260901152025 26 0 0.0 3.2 0.00 0.00 0.00 62 1015.6
20260901151546 25 0 0.0 3.2 0.00 0.00 0.00 61 1015.6
20260901151030 25 0 0.0 3.2 0.00 0.00 0.00 62 1015.6
20260901150530 25 0 0.0 3.2 0.00 0.00 0.00 63 1015.6
20260901150044 25 360 0.0 3.2 0.00 0.00 0.00 63 1015.6
20260901145524 25 0 0.0 3.2 0.00 0.00 0.00 64 1015.5
20260901145026 25 360 0.0 3.2 0.00 0.00 0.00 67 1015.6
20260901144547 25 360 0.0 3.2 0.00 0.00 0.00 65 1015.7
20260901144027 24 0 0.0 1.6 0.00 0.00 0.00 69 1015.8
20260901143527 24 0 0.0 3.2 0.00 0.00 0.00 71 1015.8
20260901143049 23 0 0.0 3.2 0.00 0.00 0.00 71 1015.8
20260901142525 23 0 0.0 3.2 0.00 0.00 0.00 72 1015.9
20260901142023 23 82 0.0 3.2 0.00 0.00 0.00 72 1015.9
20260901141602 23 80 0.0 3.2 0.00 0.00 0.00 74 1015.8
20260901141026 23 79 0.0 1.6 0.00 0.00 0.00 77 1015.8
20260901140526 22 0 0.0 1.6 0.00 0.00 0.00 77 1015.9
20260901140047 22 0 0.0 1.6 0.00 0.00 0.00 79 1015.7
20260901135523 22 0 0.0 3.2 0.00 0.00 0.00 80 1015.7
20260901135024 21 0 0.0 3.2 0.00 0.00 0.00 81 1015.8
20260901134541 21 0 0.0 1.6 0.00 0.00 0.00 82 1015.9
20260901134024 21 0 0.0 3.2 0.00 0.00 0.00 86 1015.8
20260901133527 20 0 0.0 3.2 0.00 0.00 0.00 86 1016.0
20260901133103 20 0 0.0 0.0 0.00 0.00 0.00 88 1015.8
20260901132527 20 0 0.0 3.2 0.00 0.00 0.00 89 1015.7
20260901132024 20 0 0.0 3.2 0.00 0.00 0.00 90 1015.6
20260901131548 19 0 0.0 1.6 0.00 0.00 0.00 92 1015.6
20260901131026 19 0 0.0 1.6 0.00 0.00 0.00 93 1015.6
20260901130523 18 0 0.0 1.6 0.00 0.00 0.00 94 1015.6
20260901130046 18 0 0.0 1.6 0.00 0.00 0.00 94 1015.6
20260901125525 18 0 0.0 0.0 0.00 0.00 0.00 94 1015.5
20260901125028 18 0 0.0 0.0 0.00 0.00 0.00 93 1015.6
20260901124549 17 0 0.0 0.0 0.00 0.00 0.00 93 1015.5
20260901124030 17 0 0.0 0.0 0.00 0.00 0.00 93 1015.6
20260901123526 17 0 0.0 0.0 0.00 0.00 0.00 93 1015.5
20260901123045 17 0 0.0 0.0 0.00 0.00 0.00 93 1015.6
20260901122527 17 0 0.0 0.0 0.00 0.00 0.00 93 1015.5
20260901122024 17 0 0.0 0.0 0.00 0.00 0.00 92 1015.5
20260901121540 17 0 0.0 0.0 0.00 0.00 0.00 92 1015.5
20260901121025 17 0 0.0 0.0 0.00 0.00 0.00 92 1015.4
20260901120523 17 0 0.0 0.0 0.00 0.00 0.00 92 1015.5
20260901120058 17 0 0.0 0.0 0.00 0.00 0.00 92 1015.4
20260901115526 17 0 0.0 0.0 0.00 0.00 0.00 92 1015.4
20260901115025 17 0 0.0 0.0 0.00 0.00 0.00 92 1015.2
20260901114548 17 0 0.0 0.0 0.00 0.00 0.00 92 1015.1
20260901114026 17 0 0.0 0.0 0.00 0.00 0.00 92 1015.2
20260901113524 17 0 0.0 0.0 0.00 0.00 0.00 92 1015.1
20260901113052 17 0 0.0 0.0 0.00 0.00 0.00 92 1015.1
20260901112524 17 0 0.0 0.0 0.00 0.00 0.00 91 1015.0
20260901112024 17 0 0.0 0.0 0.00 0.00 0.00 91 1015.0
20260901111553 17 0 0.0 0.0 0.00 0.00 0.00 91 1014.9
20260901111023 17 0 0.0 0.0 0.00 0.00 0.00 91 1014.8
20260901110525 17 0 0.0 0.0 0.00 0.00 0.00 91 1014.7
20260901110055 17 0 0.0 0.0 0.00 0.00 0.00 91 1014.7
20260901105523 17 0 0.0 0.0 0.00 0.00 0.00 91 1014.6
20260901105026 17 0 0.0 0.0 0.00 0.00 0.00 91 1014.6
20260901104552 17 0 0.0 0.0 0.00 0.00 0.00 91 1014.6
20260901104024 17 0 0.0 0.0 0.00 0.00 0.00 91 1014.3
20260901103525 17 0 0.0 0.0 0.00 0.00 0.00 91 1014.2
20260901103046 17 0 0.0 0.0 0.00 0.00 0.00 90 1014.3
20260901102524 17 0 0.0 0.0 0.00 0.00 0.00 90 1014.4
20260901102023 17 0 0.0 0.0 0.00 0.00 0.00 90 1014.4
20260901101550 17 0 0.0 0.0 0.00 0.00 0.00 90 1014.5
20260901101023 17 0 0.0 0.0 0.00 0.00 0.00 90 1014.4
20260901100523 17 0 0.0 0.0 0.00 0.00 0.00 90 1014.3
20260901100047 17 0 0.0 0.0 0.00 0.00 0.00 90 1014.3
20260901095525 17 0 0.0 0.0 0.00 0.00 0.00 90 1014.3
20260901095025 17 0 0.0 0.0 0.00 0.00 0.00 90 1014.2
20260901094547 17 0 0.0 0.0 0.00 0.00 0.00 90 1014.1
20260901094025 17 0 0.0 0.0 0.00 0.00 0.00 90 1014.3
20260901093526 17 0 0.0 0.0 0.00 0.00 0.00 89 1014.2
20260901093051 17 0 0.0 0.0 0.00 0.00 0.00 90 1014.1
20260901092525 17 0 0.0 0.0 0.00 0.00 0.00 90 1014.2
20260901092026 17 0 0.0 0.0 0.00 0.00 0.00 89 1014.0
20260901091559 17 0 0.0 0.0 0.00 0.00 0.00 89 1014.0
20260901091028 17 0 0.0 0.0 0.00 0.00 0.00 89 1014.0
20260901090526 17 0 0.0 0.0 0.00 0.00 0.00 89 1014.2
20260901090049 17 0 0.0 0.0 0.00 0.00 0.00 89 1014.1
20260901085521 17 0 0.0 0.0 0.00 0.00 0.00 89 1014.2
20260901085026 17 0 0.0 0.0 0.00 0.00 0.00 88 1014.1
20260901084544 17 0 0.0 0.0 0.00 0.00 0.00 88 1014.1
20260901084024 18 0 0.0 0.0 0.00 0.00 0.00 88 1014.1
20260901083528 18 0 0.0 0.0 0.00 0.00 0.00 88 1014.1
20260901083041 18 0 0.0 0.0 0.00 0.00 0.00 88 1014.2
20260901082523 18 0 0.0 0.0 0.00 0.00 0.00 87 1014.0
20260901082023 18 0 0.0 0.0 0.00 0.00 0.00 87 1014.1
20260901081549 18 0 0.0 0.0 0.00 0.00 0.00 87 1014.2
20260901081023 18 0 0.0 0.0 0.00 0.00 0.00 87 1014.2
20260901080522 18 0 0.0 0.0 0.00 0.00 0.00 87 1014.2
20260901080047 18 0 0.0 0.0 0.00 0.00 0.00 87 1014.3
20260901075527 18 0 0.0 0.0 0.00 0.00 0.00 87 1014.3
20260901075029 18 0 0.0 0.0 0.00 0.00 0.00 86 1014.2
20260901074550 18 0 0.0 0.0 0.00 0.00 0.00 86 1014.3
20260901074025 18 0 0.0 0.0 0.00 0.00 0.00 86 1014.3
20260901073529 18 0 0.0 0.0 0.00 0.00 0.00 86 1014.3
20260901073044 18 0 0.0 0.0 0.00 0.00 0.00 86 1014.5
20260901072524 18 0 0.0 0.0 0.00 0.00 0.00 87 1014.4
20260901072027 18 0 0.0 0.0 0.00 0.00 0.00 87 1014.4
20260901071601 18 0 0.0 0.0 0.00 0.00 0.00 86 1014.6
20260901071022 18 0 0.0 0.0 0.00 0.00 0.00 86 1014.5
20260901070522 19 0 0.0 0.0 0.00 0.00 0.00 86 1014.6
20260901070103 19 0 0.0 0.0 0.00 0.00 0.00 87 1014.6
20260901065525 19 0 0.0 0.0 0.00 0.00 0.00 87 1014.6
20260901065022 19 0 0.0 0.0 0.00 0.00 0.00 86 1014.6
20260901064545 19 0 0.0 0.0 0.00 0.00 0.00 86 1014.6
20260901064024 19 0 0.0 0.0 0.00 0.00 0.00 86 1014.7
20260901063526 19 0 0.0 0.0 0.00 0.00 0.00 86 1014.7
20260901063040 19 0 0.0 0.0 0.00 0.00 0.00 86 1014.7
20260901062524 19 0 0.0 0.0 0.00 0.00 0.00 86 1014.9
20260901062025 19 0 0.0 0.0 0.00 0.00 0.00 86 1014.7
20260901061552 19 0 0.0 0.0 0.00 0.00 0.00 86 1014.6
20260901061028 20 0 0.0 0.0 0.00 0.00 0.00 86 1014.7
20260901060525 20 0 0.0 0.0 0.00 0.00 0.00 85 1014.6
20260901060043 20 0 0.0 0.0 0.00 0.00 0.00 85 1014.6
20260901055527 20 0 0.0 0.0 0.00 0.00 0.00 85 1014.6
20260901055026 20 0 0.0 0.0 0.00 0.00 0.00 85 1014.6
20260901054546 20 0 0.0 0.0 0.00 0.00 0.00 85 1014.6
20260901054027 20 0 0.0 0.0 0.00 0.00 0.00 84 1014.4
20260901053527 20 0 0.0 0.0 0.00 0.00 0.00 84 1014.4
20260901053046 20 0 0.0 0.0 0.00 0.00 0.00 83 1014.3
20260901052524 20 0 0.0 0.0 0.00 0.00 0.00 83 1014.3
20260901052028 20 0 0.0 0.0 0.00 0.00 0.00 83 1014.3
20260901051545 20 0 0.0 0.0 0.00 0.00 0.00 83 1014.3
20260901051023 20 0 0.0 0.0 0.00 0.00 0.00 82 1014.2
20260901050523 20 0 0.0 0.0 0.00 0.00 0.00 82 1014.1
20260901050041 20 0 0.0 0.0 0.00 0.00 0.00 82 1014.1
20260901045523 20 0 0.0 0.0 0.00 0.00 0.00 82 1014.0
20260901045029 20 0 0.0 0.0 0.00 0.00 0.00 82 1014.0
20260901044548 21 0 0.0 0.0 0.00 0.00 0.00 81 1014.0
20260901044024 21 0 0.0 0.0 0.00 0.00 0.00 81 1014.0
20260901043524 21 0 0.0 0.0 0.00 0.00 0.00 80 1014.0
20260901043107 21 0 0.0 0.0 0.00 0.00 0.00 80 1014.0
20260901042527 21 0 0.0 0.0 0.00 0.00 0.00 80 1013.9
20260901042025 21 0 0.0 0.0 0.00 0.00 0.00 80 1013.8
20260901041544 21 0 0.0 0.0 0.00 0.00 0.00 79 1014.0
20260901041023 21 0 0.0 0.0 0.00 0.00 0.00 79 1014.0
20260901040523 21 0 0.0 0.0 0.00 0.00 0.00 78 1014.0
20260901040046 21 0 0.0 0.0 0.00 0.00 0.00 78 1014.0
20260901035524 21 0 0.0 0.0 0.00 0.00 0.00 78 1013.9
20260901035024 21 0 0.0 0.0 0.00 0.00 0.00 78 1013.9
20260901034555 21 0 0.0 0.0 0.00 0.00 0.00 77 1014.0
20260901034022 21 0 0.0 0.0 0.00 0.00 0.00 77 1014.0
20260901033524 22 0 0.0 0.0 0.00 0.00 0.00 77 1013.9
20260901033104 22 0 0.0 0.0 0.00 0.00 0.00 77 1013.9
20260901032521 22 0 0.0 0.0 0.00 0.00 0.00 76 1014.0
20260901032023 22 0 0.0 0.0 0.00 0.00 0.00 76 1013.8
20260901031604 22 0 0.0 0.0 0.00 0.00 0.00 76 1013.9
20260901031027 22 0 0.0 0.0 0.00 0.00 0.00 76 1013.8
20260901030528 22 0 0.0 0.0 0.00 0.00 0.00 76 1013.8
20260901030045 22 0 0.0 0.0 0.00 0.00 0.00 75 1013.8
20260901025529 22 0 0.0 0.0 0.00 0.00 0.00 75 1013.8
20260901025025 22 0 0.0 0.0 0.00 0.00 0.00 73 1013.8
20260901024547 22 0 0.0 0.0 0.00 0.00 0.00 72 1013.8
20260901024025 22 0 0.0 0.0 0.00 0.00 0.00 72 1013.6
20260901023522 22 0 0.0 0.0 0.00 0.00 0.00 72 1013.6
20260901023046 22 0 0.0 0.0 0.00 0.00 0.00 72 1013.6
20260901022529 22 0 0.0 0.0 0.00 0.00 0.00 71 1013.6
20260901022025 23 0 0.0 0.0 0.00 0.00 0.00 69 1013.6
20260901021542 23 0 0.0 0.0 0.00 0.00 0.00 69 1013.5
20260901021023 23 0 0.0 0.0 0.00 0.00 0.00 68 1013.5
20260901020524 23 0 0.0 0.0 0.00 0.00 0.00 68 1013.4
20260901020046 23 0 0.0 0.0 0.00 0.00 0.00 68 1013.5
20260901015523 23 0 0.0 0.0 0.00 0.00 0.00 67 1013.4
20260901015024 23 0 0.0 0.0 0.00 0.00 0.00 67 1013.2
20260901014548 23 0 0.0 0.0 0.00 0.00 0.00 66 1013.3
20260901014024 24 0 0.0 0.0 0.00 0.00 0.00 65 1013.2
20260901013524 24 0 0.0 0.0 0.00 0.00 0.00 64 1013.3
20260901013049 24 0 0.0 0.0 0.00 0.00 0.00 64 1013.2
20260901012525 25 0 0.0 0.0 0.00 0.00 0.00 63 1013.0
20260901012024 25 0 0.0 0.0 0.00 0.00 0.00 63 1012.9
20260901011544 25 0 0.0 0.0 0.00 0.00 0.00 61 1013.0
20260901011026 25 0 0.0 0.0 0.00 0.00 0.00 61 1013.0
20260901010526 25 0 0.0 0.0 0.00 0.00 0.00 60 1012.9
20260901010042 26 0 0.0 0.0 0.00 0.00 0.00 60 1013.0
20260901005524 26 0 0.0 0.0 0.00 0.00 0.00 59 1012.9
20260901005023 26 0 0.0 0.0 0.00 0.00 0.00 59 1012.9
20260901004550 26 0 0.0 0.0 0.00 0.00 0.00 57 1012.8
20260901004022 26 0 0.0 0.0 0.00 0.00 0.00 58 1012.8
20260901003522 26 0 0.0 0.0 0.00 0.00 0.00 56 1012.8
20260901003057 27 0 0.0 0.0 0.00 0.00 0.00 56 1012.8
20260901002523 27 0 0.0 0.0 0.00 0.00 0.00 56 1012.8
20260901002025 27 0 0.0 0.0 0.00 0.00 0.00 55 1012.8
20260901001559 27 0 0.0 0.0 0.00 0.00 0.00 53 1012.9
20260901001024 27 0 0.0 0.0 0.00 0.00 0.00 54 1012.8
20260901000522 28 0 0.0 0.0 0.00 0.00 0.00 53 1012.7
20260901000050 28 0 0.0 0.0 0.00 0.00 0.00 52 1012.7
20260831235530 28 0 0.0 0.0 0.00 0.00 0.00 53 1012.7
20260831235024 28 0 0.0 0.0 0.00 0.00 0.00 51 1012.4
20260831234544 28 0 0.0 0.0 0.00 0.00 0.00 50 1012.5
20260831234023 28 0 0.0 0.0 0.00 0.00 0.00 49 1012.3
20260831233524 28 0 0.0 0.0 0.00 0.00 0.00 49 1012.2
20260831233042 29 0 0.0 0.0 0.00 0.00 0.00 48 1012.3
20260831232526 29 0 0.0 0.0 0.00 0.00 0.00 48 1012.3
20260831232024 29 0 0.0 0.0 0.00 0.00 0.00 46 1012.4
20260831231548 29 0 0.0 0.0 0.00 0.00 0.00 46 1012.3
20260831231026 30 0 0.0 0.0 0.00 0.00 0.00 47 1012.4
20260831230524 30 0 0.0 0.0 0.00 0.00 0.00 46 1012.3
20260831230050 30 0 0.0 0.0 0.00 0.00 0.00 46 1012.3
20260831225526 30 0 0.0 0.0 0.00 0.00 0.00 44 1012.3
20260831225024 30 0 0.0 0.0 0.00 0.00 0.00 43 1012.4
20260831224545 30 0 0.0 0.0 0.00 0.00 0.00 43 1012.2
20260831224025 30 0 0.0 1.6 0.00 0.00 0.00 40 1012.2
20260831223525 30 0 0.0 1.6 0.00 0.00 0.00 41 1012.2
20260831223043 30 0 0.0 1.6 0.00 0.00 0.00 40 1012.2
20260831222525 30 0 0.0 1.6 0.00 0.00 0.00 42 1012.2
20260831222033 30 0 0.0 0.0 0.00 0.00 0.00 43 1012.1
20260831221558 30 0 0.0 0.0 0.00 0.00 0.00 41 1012.1
20260831221022 30 0 0.0 0.0 0.00 0.00 0.00 39 1012.1
20260831220524 30 0 0.0 1.6 0.00 0.00 0.00 38 1012.0
20260831220047 30 0 0.0 1.6 0.00 0.00 0.00 39 1012.0
20260831215523 30 0 0.0 1.6 0.00 0.00 0.00 39 1011.9
20260831215024 30 0 0.0 3.2 0.00 0.00 0.00 38 1011.8
20260831214555 30 0 0.0 3.2 0.00 0.00 0.00 38 1011.9
20260831214022 31 0 0.0 3.2 0.00 0.00 0.00 37 1011.9
20260831213528 31 0 0.0 1.6 0.00 0.00 0.00 39 1011.8
20260831213051 31 0 0.0 3.2 0.00 0.00 0.00 39 1011.9
20260831212524 31 0 0.0 3.2 0.00 0.00 0.00 40 1011.9
20260831212025 31 0 0.0 1.6 0.00 0.00 0.00 40 1011.8
20260831211548 31 0 0.0 6.4 0.00 0.00 0.00 42 1011.8
20260831211022 31 0 0.0 6.4 0.00 0.00 0.00 42 1011.7
20260831210523 31 0 0.0 4.8 0.00 0.00 0.00 43 1011.8
20260831210047 31 0 0.0 4.8 0.00 0.00 0.00 43 1011.8
20260831205522 31 348 0.0 4.8 0.00 0.00 0.00 42 1011.8
20260831205027 31 0 0.0 1.6 0.00 0.00 0.00 45 1011.8
20260831204553 31 0 0.0 1.6 0.00 0.00 0.00 44 1011.8
20260831204022 31 0 0.0 3.2 0.00 0.00 0.00 44 1011.7
20260831203522 31 0 0.0 8.0 0.00 0.00 0.00 45 1011.8
20260831203058 31 0 0.0 8.0 0.00 0.00 0.00 45 1011.8
20260831202524 31 216 0.0 4.8 0.00 0.00 0.00 45 1011.9
20260831202024 31 0 0.0 3.2 0.00 0.00 0.00 47 1012.0
20260831201547 31 0 0.0 4.8 0.00 0.00 0.00 46 1011.9
20260831201023 30 0 0.0 6.4 0.00 0.00 0.00 46 1012.0
20260831200523 30 327 0.0 6.4 0.00 0.00 0.00 50 1012.0
20260831200046 30 0 0.0 3.2 0.00 0.00 0.00 53 1011.9
20260831195524 30 0 0.0 4.8 0.00 0.00 0.00 52 1011.9
20260831195021 30 110 0.0 4.8 0.00 0.00 0.00 52 1011.9
20260831194545 30 0 0.0 3.2 0.00 0.00 0.00 54 1011.9
20260831194027 30 0 0.0 3.2 0.00 0.00 0.00 56 1011.9
20260831193523 29 295 0.0 3.2 0.00 0.00 0.00 56 1011.9
20260831193042 29 0 0.0 3.2 0.00 0.00 0.00 56 1012.0
20260831192528 29 338 0.0 4.8 0.00 0.00 0.00 58 1011.9
20260831192024 29 257 0.0 4.8 0.00 0.00 0.00 59 1011.9
20260831191557 29 0 0.0 9.7 0.00 0.00 0.00 59 1011.9
20260831191024 29 0 1.6 9.7 0.00 0.00 0.00 60 1011.9
20260831190523 28 0 0.0 4.8 0.00 0.00 0.00 59 1011.9
20260831190050 28 0 0.0 4.8 0.00 0.00 0.00 61 1012.0
20260831185522 28 265 0.0 3.2 0.00 0.00 0.00 60 1011.9
20260831185027 28 186 0.0 4.8 0.00 0.00 0.00 60 1011.8
20260831184550 28 0 0.0 4.8 0.00 0.00 0.00 60 1011.7
20260831184031 28 0 0.0 4.8 0.00 0.00 0.00 60 1011.9
20260831183529 28 0 0.0 8.0 0.00 0.00 0.00 61 1011.8
20260831183042 28 103 1.6 8.0 0.00 0.00 0.00 60 1011.9
20260831182525 28 188 0.0 8.0 0.00 0.00 0.00 61 1011.9
20260831182026 28 0 0.0 8.0 0.00 0.00 0.00 62 1011.9
20260831181554 28 0 0.0 3.2 0.00 0.00 0.00 62 1011.9
20260831181022 28 0 0.0 3.2 0.00 0.00 0.00 63 1012.1
20260831180527 28 0 0.0 4.8 0.00 0.00 0.00 63 1012.1
20260831180047 28 313 0.0 6.4 0.00 0.00 0.00 65 1012.1
20260831175524 28 328 0.0 6.4 0.00 0.00 0.00 67 1012.0
20260831175026 28 0 0.0 6.4 0.00 0.00 0.00 70 1012.0
20260831174559 27 102 0.0 4.8 0.00 0.00 0.00 70 1012.1
20260831174030 27 0 0.0 6.4 0.00 0.00 0.00 71 1012.0
20260831173527 27 333 0.0 6.4 0.00 0.00 0.00 72 1012.2
20260831173106 27 0 0.0 6.4 0.00 0.00 0.00 71 1012.2
20260831172522 27 0 0.0 3.2 0.00 0.00 0.00 74 1012.2
20260831172029 27 0 0.0 3.2 0.00 0.00 0.00 74 1012.3
20260831171547 27 0 0.0 3.2 0.00 0.00 0.00 73 1012.3
20260831171022 27 229 0.0 4.8 0.00 0.00 0.00 74 1012.3
20260831170525 27 0 0.0 4.8 0.00 0.00 0.00 74 1012.3
20260831170056 27 0 0.0 4.8 0.00 0.00 0.00 74 1012.2
20260831165524 27 315 0.0 4.8 0.00 0.00 0.00 75 1012.2
20260831165026 27 0 0.0 4.8 0.00 0.00 0.00 75 1012.3
20260831164559 27 291 0.0 4.8 0.00 0.00 0.00 75 1012.3
20260831164023 28 78 0.0 3.2 0.00 0.00 0.00 74 1012.2